| time (UTC) | temp F | wind direction | speed MPH | gust MPH | rain 1hr in | rain 24hr in | rain mn in | humidity % | barometer mb |
| 20260508033016 | 47 | 145 | 1.0 | 5.0 | 0.00 | 0.10 | 0.09 | 96 | 1013.7 |
| 20260508032037 | 47 | 66 | 2.0 | 5.0 | 0.00 | 0.10 | 0.09 | 96 | 1013.7 |
| 20260508031017 | 48 | 315 | 1.0 | 4.0 | 0.00 | 0.11 | 0.09 | 96 | 1013.6 |
| 20260508030017 | 48 | 105 | 2.0 | 4.0 | 0.00 | 0.20 | 0.09 | 97 | 1013.4 |
| 20260508025017 | 49 | 157 | 2.0 | 5.0 | 0.00 | 0.23 | 0.09 | 98 | 1013.4 |
| 20260508024017 | 49 | 141 | 2.0 | 3.0 | 0.00 | 0.25 | 0.09 | 99 | 1013.3 |
| 20260508023018 | 49 | 293 | 1.0 | 3.0 | 0.00 | 0.27 | 0.09 | 100 | 1013.4 |
| 20260508022017 | 49 | 187 | 2.0 | 4.0 | 0.00 | 0.27 | 0.09 | 99 | 1013.1 |
| 20260508021038 | 50 | 215 | 0.0 | 1.0 | 0.00 | 0.27 | 0.09 | 99 | 1013.0 |
| 20260508020038 | 50 | 141 | 2.0 | 4.0 | 0.00 | 0.27 | 0.09 | 99 | 1012.7 |
| 20260508015018 | 50 | 126 | 1.0 | 4.0 | 0.00 | 0.27 | 0.09 | 99 | 1012.6 |
| 20260508014036 | 51 | 146 | 2.0 | 3.0 | 0.00 | 0.27 | 0.09 | 99 | 1012.4 |
| 20260508013016 | 52 | 160 | 2.0 | 3.0 | 0.00 | 0.27 | 0.09 | 99 | 1012.1 |
| 20260508012016 | 52 | 151 | 1.0 | 2.0 | 0.00 | 0.27 | 0.09 | 100 | 1012.0 |
| 20260508011016 | 52 | 10 | 0.0 | 2.0 | 0.00 | 0.27 | 0.09 | 99 | 1011.8 |
| 20260508010016 | 53 | 293 | 1.0 | 4.0 | 0.00 | 0.27 | 0.09 | 99 | 1011.7 |
| 20260508005016 | 54 | 297 | 1.0 | 2.0 | 0.00 | 0.27 | 0.09 | 98 | 1011.8 |
| 20260508004016 | 54 | 302 | 1.0 | 2.0 | 0.00 | 0.27 | 0.09 | 97 | 1011.8 |
| 20260508003016 | 55 | 303 | 1.0 | 2.0 | 0.00 | 0.27 | 0.09 | 96 | 1011.8 |
| 20260508002016 | 55 | 295 | 0.0 | 2.0 | 0.00 | 0.27 | 0.09 | 94 | 1011.9 |
| 20260508001016 | 57 | 133 | 0.0 | 2.0 | 0.00 | 0.27 | 0.09 | 92 | 1011.9 |
| 20260508000017 | 58 | 202 | 1.0 | 2.0 | 0.00 | 0.27 | 0.09 | 90 | 1011.8 |
| 20260507235016 | 59 | 235 | 1.0 | 2.0 | 0.00 | 0.27 | 0.09 | 88 | 1011.6 |
| 20260507234017 | 60 | 147 | 1.0 | 2.0 | 0.00 | 0.27 | 0.09 | 86 | 1011.4 |
| 20260507233016 | 60 | 154 | 1.0 | 3.0 | 0.00 | 0.27 | 0.09 | 87 | 1011.3 |
| 20260507232017 | 60 | 120 | 2.0 | 4.0 | 0.00 | 0.27 | 0.09 | 87 | 1011.0 |
| 20260507231017 | 60 | 131 | 1.0 | 3.0 | 0.00 | 0.27 | 0.09 | 88 | 1010.9 |
| 20260507230017 | 60 | 59 | 2.0 | 5.0 | 0.00 | 0.27 | 0.09 | 88 | 1010.7 |
| 20260507225017 | 60 | 95 | 2.0 | 4.0 | 0.00 | 0.27 | 0.09 | 86 | 1010.7 |
| 20260507224018 | 60 | 179 | 1.0 | 3.0 | 0.00 | 0.27 | 0.09 | 88 | 1010.5 |
| 20260507223018 | 61 | 114 | 3.0 | 7.0 | 0.00 | 0.27 | 0.09 | 86 | 1010.5 |
| 20260507222038 | 63 | 107 | 2.0 | 6.0 | 0.00 | 0.27 | 0.09 | 84 | 1010.2 |
| 20260507221018 | 63 | 191 | 2.0 | 4.0 | 0.00 | 0.27 | 0.09 | 84 | 1010.3 |
| 20260507220016 | 61 | 193 | 2.0 | 5.0 | 0.00 | 0.27 | 0.09 | 87 | 1010.2 |
| 20260507215016 | 59 | 139 | 2.0 | 5.0 | 0.00 | 0.27 | 0.09 | 91 | 1010.2 |
| 20260507214036 | 59 | 120 | 2.0 | 5.0 | 0.00 | 0.27 | 0.09 | 91 | 1010.5 |
| 20260507213016 | 60 | 123 | 2.0 | 5.0 | 0.00 | 0.27 | 0.09 | 89 | 1010.6 |
| 20260507212016 | 61 | 143 | 2.0 | 4.0 | 0.00 | 0.27 | 0.09 | 87 | 1010.6 |
| 20260507211016 | 62 | 173 | 1.0 | 4.0 | 0.00 | 0.27 | 0.09 | 88 | 1010.4 |
| 20260507210016 | 60 | 156 | 2.0 | 4.0 | 0.00 | 0.27 | 0.09 | 91 | 1010.0 |
| 20260507205017 | 60 | 140 | 2.0 | 4.0 | 0.00 | 0.27 | 0.09 | 90 | 1010.3 |
| 20260507204017 | 60 | 121 | 2.0 | 4.0 | 0.00 | 0.27 | 0.09 | 90 | 1010.2 |
| 20260507203017 | 60 | 194 | 2.0 | 5.0 | 0.00 | 0.27 | 0.09 | 94 | 1010.2 |
| 20260507202017 | 59 | 105 | 2.0 | 6.0 | 0.00 | 0.27 | 0.09 | 94 | 1010.2 |
| 20260507201017 | 57 | 114 | 3.0 | 7.0 | 0.00 | 0.27 | 0.09 | 97 | 1010.2 |
| 20260507200017 | 57 | 77 | 4.0 | 8.0 | 0.00 | 0.27 | 0.09 | 97 | 1010.6 |
| 20260507195017 | 56 | 98 | 4.0 | 7.0 | 0.02 | 0.27 | 0.09 | 98 | 1010.8 |
| 20260507194020 | 55 | 111 | 3.0 | 5.0 | 0.03 | 0.27 | 0.09 | 99 | 1011.0 |
| 20260507193023 | 55 | 111 | 3.0 | 4.0 | 0.03 | 0.27 | 0.09 | 99 | 1011.4 |
| 20260507192024 | 55 | 118 | 3.0 | 5.0 | 0.03 | 0.27 | 0.09 | 99 | 1011.5 |
| 20260507191021 | 55 | 107 | 3.0 | 5.0 | 0.03 | 0.27 | 0.09 | 99 | 1011.5 |
| 20260507190024 | 56 | 123 | 3.0 | 5.0 | 0.03 | 0.27 | 0.09 | 98 | 1011.4 |
| 20260507185024 | 56 | 63 | 2.0 | 4.0 | 0.02 | 0.25 | 0.07 | 98 | 1011.5 |
| 20260507184024 | 57 | 95 | 2.0 | 4.0 | 0.02 | 0.25 | 0.06 | 98 | 1011.5 |
| 20260507183024 | 57 | 83 | 2.0 | 3.0 | 0.01 | 0.25 | 0.06 | 98 | 1011.5 |
| 20260507182024 | 57 | 119 | 1.0 | 2.0 | 0.01 | 0.25 | 0.06 | 98 | 1011.5 |
| 20260507181025 | 57 | 80 | 2.0 | 3.0 | 0.02 | 0.25 | 0.06 | 98 | 1011.5 |
| 20260507180025 | 57 | 328 | 1.0 | 2.0 | 0.04 | 0.25 | 0.05 | 98 | 1011.4 |
| 20260507175025 | 57 | 89 | 2.0 | 4.0 | 0.04 | 0.24 | 0.05 | 98 | 1011.6 |
| 20260507174017 | 57 | 55 | 2.0 | 3.0 | 0.03 | 0.24 | 0.05 | 97 | 1011.4 |
| 20260507173037 | 58 | 75 | 2.0 | 3.0 | 0.03 | 0.24 | 0.04 | 97 | 1011.4 |
| 20260507172017 | 58 | 51 | 1.0 | 3.0 | 0.03 | 0.24 | 0.04 | 96 | 1011.4 |
| 20260507171020 | 58 | 301 | 1.0 | 3.0 | 0.03 | 0.23 | 0.04 | 95 | 1011.6 |
| 20260507170037 | 59 | 333 | 2.0 | 4.0 | 0.00 | 0.21 | 0.02 | 93 | 1011.4 |
| 20260507165017 | 59 | 46 | 2.0 | 5.0 | 0.00 | 0.21 | 0.01 | 92 | 1011.2 |
| 20260507164022 | 60 | 57 | 2.0 | 4.0 | 0.00 | 0.22 | 0.01 | 90 | 1011.3 |
| 20260507163017 | 60 | 291 | 1.0 | 3.0 | 0.00 | 0.22 | 0.01 | 90 | 1011.3 |
| 20260507162017 | 60 | 62 | 2.0 | 4.0 | 0.00 | 0.22 | 0.01 | 90 | 1011.3 |
| 20260507161018 | 60 | 307 | 2.0 | 5.0 | 0.00 | 0.22 | 0.01 | 90 | 1011.3 |
| 20260507160018 | 60 | 46 | 2.0 | 6.0 | 0.00 | 0.22 | 0.01 | 88 | 1011.5 |
| 20260507155018 | 60 | 303 | 2.0 | 4.0 | 0.00 | 0.22 | 0.01 | 87 | 1011.6 |
| 20260507154018 | 60 | 306 | 3.0 | 6.0 | 0.00 | 0.22 | 0.01 | 88 | 1011.7 |
| 20260507153018 | 60 | 310 | 2.0 | 4.0 | 0.00 | 0.22 | 0.01 | 89 | 1011.7 |
| 20260507152039 | 60 | 312 | 2.0 | 5.0 | 0.00 | 0.22 | 0.01 | 87 | 1011.7 |
| 20260507151019 | 60 | 309 | 2.0 | 6.0 | 0.00 | 0.22 | 0.01 | 86 | 1011.5 |
| 20260507150016 | 60 | 302 | 2.0 | 4.0 | 0.00 | 0.22 | 0.01 | 87 | 1011.6 |
| 20260507145016 | 60 | 307 | 3.0 | 5.0 | 0.00 | 0.22 | 0.01 | 86 | 1011.5 |
| 20260507144016 | 60 | 307 | 3.0 | 6.0 | 0.00 | 0.22 | 0.01 | 86 | 1011.4 |
| 20260507143016 | 60 | 307 | 2.0 | 6.0 | 0.00 | 0.22 | 0.01 | 88 | 1011.2 |
| 20260507142036 | 60 | 303 | 2.0 | 3.0 | 0.00 | 0.22 | 0.01 | 89 | 1011.3 |
| 20260507141017 | 60 | 310 | 2.0 | 6.0 | 0.00 | 0.23 | 0.01 | 89 | 1011.4 |
| 20260507140020 | 60 | 310 | 2.0 | 4.0 | 0.00 | 0.24 | 0.01 | 88 | 1011.1 |
| 20260507135017 | 61 | 304 | 3.0 | 6.0 | 0.00 | 0.25 | 0.01 | 85 | 1011.6 |
| 20260507134017 | 61 | 305 | 4.0 | 8.0 | 0.00 | 0.26 | 0.01 | 85 | 1011.6 |
| 20260507133017 | 62 | 304 | 4.0 | 6.0 | 0.00 | 0.26 | 0.01 | 86 | 1011.3 |
| 20260507132017 | 61 | 302 | 2.0 | 4.0 | 0.00 | 0.26 | 0.01 | 86 | 1011.5 |
| 20260507131017 | 60 | 294 | 2.0 | 5.0 | 0.00 | 0.27 | 0.01 | 87 | 1011.7 |
| 20260507130037 | 60 | 304 | 1.0 | 2.0 | 0.00 | 0.28 | 0.01 | 88 | 1011.7 |
| 20260507125018 | 60 | 309 | 2.0 | 4.0 | 0.00 | 0.28 | 0.01 | 87 | 1011.7 |
| 20260507124038 | 59 | 311 | 3.0 | 6.0 | 0.00 | 0.28 | 0.01 | 88 | 1011.7 |
| 20260507123018 | 59 | 310 | 3.0 | 7.0 | 0.00 | 0.28 | 0.01 | 89 | 1011.9 |
| 20260507122058 | 60 | 305 | 4.0 | 8.0 | 0.00 | 0.28 | 0.01 | 90 | 1011.4 |
| 20260507121016 | 59 | 310 | 2.0 | 4.0 | 0.00 | 0.28 | 0.01 | 91 | 1011.2 |
| 20260507120015 | 59 | 312 | 3.0 | 5.0 | 0.00 | 0.28 | 0.01 | 92 | 1011.5 |
| 20260507115016 | 59 | 302 | 2.0 | 3.0 | 0.00 | 0.28 | 0.01 | 91 | 1011.3 |
| 20260507114016 | 59 | 302 | 1.0 | 3.0 | 0.00 | 0.28 | 0.01 | 92 | 1011.2 |
| 20260507113016 | 59 | 302 | 2.0 | 3.0 | 0.00 | 0.28 | 0.01 | 93 | 1011.2 |
| 20260507112016 | 59 | 308 | 3.0 | 6.0 | 0.00 | 0.28 | 0.01 | 94 | 1011.1 |
| 20260507111016 | 59 | 302 | 2.0 | 6.0 | 0.00 | 0.29 | 0.01 | 95 | 1010.8 |
| 20260507110036 | 59 | 301 | 2.0 | 4.0 | 0.00 | 0.29 | 0.01 | 95 | 1011.1 |
| 20260507105016 | 59 | 305 | 2.0 | 4.0 | 0.00 | 0.29 | 0.01 | 95 | 1010.7 |
| 20260507104037 | 59 | 313 | 1.0 | 3.0 | 0.00 | 0.29 | 0.01 | 96 | 1010.9 |
| 20260507103017 | 59 | 303 | 2.0 | 3.0 | 0.00 | 0.29 | 0.01 | 97 | 1010.9 |
| 20260507102017 | 59 | 307 | 2.0 | 5.0 | 0.00 | 0.29 | 0.01 | 97 | 1011.0 |
| 20260507101017 | 60 | 305 | 2.0 | 5.0 | 0.00 | 0.29 | 0.01 | 97 | 1010.5 |
| 20260507100017 | 60 | 306 | 2.0 | 5.0 | 0.00 | 0.29 | 0.01 | 97 | 1010.3 |
| 20260507095017 | 60 | 303 | 4.0 | 9.0 | 0.00 | 0.29 | 0.01 | 99 | 1010.5 |
| 20260507094058 | 61 | 307 | 4.0 | 10.0 | 0.00 | 0.29 | 0.01 | 99 | 1010.2 |
| 20260507093018 | 61 | 300 | 2.0 | 4.0 | 0.00 | 0.29 | 0.01 | 99 | 1010.6 |
| 20260507092018 | 61 | 304 | 2.0 | 4.0 | 0.00 | 0.29 | 0.00 | 99 | 1010.4 |
| 20260507091018 | 61 | 192 | 1.0 | 2.0 | 0.00 | 0.29 | 0.00 | 99 | 1009.9 |
| 20260507090016 | 61 | 183 | 1.0 | 2.0 | 0.00 | 0.29 | 0.00 | 99 | 1010.2 |
| 20260507085016 | 61 | 295 | 2.0 | 4.0 | 0.00 | 0.29 | 0.00 | 99 | 1010.4 |
| 20260507084016 | 61 | 299 | 1.0 | 2.0 | 0.00 | 0.29 | 0.00 | 99 | 1010.6 |
| 20260507083017 | 62 | 300 | 1.0 | 2.0 | 0.00 | 0.29 | 0.00 | 99 | 1010.4 |
| 20260507082017 | 62 | 299 | 0.0 | 2.0 | 0.00 | 0.29 | 0.00 | 99 | 1010.6 |
| 20260507081037 | 62 | 45 | 0.0 | 1.0 | 0.00 | 0.29 | 0.00 | 99 | 1010.7 |
| 20260507080017 | 62 | 129 | 0.0 | 1.0 | 0.00 | 0.29 | 0.00 | 99 | 1010.7 |
| 20260507075017 | 62 | 138 | 0.0 | 1.0 | 0.00 | 0.29 | 0.00 | 99 | 1010.7 |
| 20260507074036 | 62 | 296 | 2.0 | 4.0 | 0.00 | 0.29 | 0.00 | 99 | 1010.7 |
| 20260507073016 | 62 | 308 | 2.0 | 5.0 | 0.00 | 0.29 | 0.00 | 99 | 1010.9 |
| 20260507072056 | 62 | 300 | 0.0 | 2.0 | 0.00 | 0.29 | 0.00 | 99 | 1010.8 |
| 20260507071016 | 62 | 148 | 1.0 | 2.0 | 0.00 | 0.29 | 0.00 | 99 | 1010.5 |
| 20260507070016 | 62 | 293 | 1.0 | 3.0 | 0.00 | 0.29 | 0.00 | 99 | 1010.4 |
| 20260507065017 | 62 | 307 | 1.0 | 4.0 | 0.00 | 0.29 | 0.00 | 99 | 1010.5 |
| 20260507064017 | 62 | 282 | 0.0 | 2.0 | 0.00 | 0.29 | 0.00 | 99 | 1010.4 |
| 20260507063017 | 62 | 226 | 0.0 | 1.0 | 0.00 | 0.29 | 0.00 | 99 | 1010.2 |
| 20260507062017 | 62 | 223 | 0.0 | 1.0 | 0.00 | 0.29 | 0.00 | 99 | 1010.4 |
| 20260507061017 | 62 | 185 | 0.0 | 2.0 | 0.00 | 0.29 | 0.00 | 99 | 1010.5 |
| 20260507060038 | 63 | 315 | 0.0 | 2.0 | 0.00 | 0.29 | 0.00 | 99 | 1010.8 |
| 20260507055017 | 62 | 313 | 0.0 | 2.0 | 0.00 | 0.29 | 0.00 | 99 | 1010.8 |
| 20260507054017 | 62 | 78 | 2.0 | 3.0 | 0.00 | 0.29 | 0.00 | 99 | 1011.0 |
| 20260507053018 | 62 | 324 | 1.0 | 3.0 | 0.00 | 0.29 | 0.00 | 99 | 1011.2 |
| 20260507052018 | 62 | 294 | 1.0 | 3.0 | 0.00 | 0.28 | 0.00 | 99 | 1011.5 |
| 20260507051018 | 62 | 119 | 1.0 | 3.0 | 0.00 | 0.28 | 0.00 | 99 | 1011.4 |
| 20260507050018 | 62 | 185 | 0.0 | 2.0 | 0.00 | 0.28 | 0.00 | 100 | 1011.4 |
| 20260507045015 | 62 | 155 | 0.0 | 2.0 | 0.00 | 0.28 | 0.00 | 100 | 1011.0 |
| 20260507044018 | 62 | 197 | 0.0 | 2.0 | 0.00 | 0.28 | 0.00 | 100 | 1011.1 |
| 20260507043016 | 62 | 212 | 1.0 | 2.0 | 0.01 | 0.28 | 0.00 | 99 | 1011.1 |
| 20260507042016 | 62 | 187 | 1.0 | 2.0 | 0.01 | 0.28 | 0.00 | 99 | 1010.9 |
| 20260507041016 | 62 | 202 | 1.0 | 2.0 | 0.02 | 0.28 | 0.00 | 99 | 1011.0 |
| 20260507040016 | 62 | 206 | 0.0 | 2.0 | 0.11 | 0.28 | 0.00 | 98 | 1011.3 |
| 20260507035016 | 63 | 187 | 0.0 | 2.0 | 0.14 | 0.28 | 0.28 | 97 | 1011.4 |
| 20260507034016 | 63 | 174 | 1.0 | 4.0 | 0.16 | 0.28 | 0.28 | 97 | 1011.8 |